{"data":{"norad_id":55343,"epoch":"2026-05-24T23:14:55.415616Z","epoch_age_seconds":80968,"freshness":"FRESH","line1":"1 55343U 23013N   26144.96869694 -.00003728  00000+0 -12593-3 0  9997","line2":"2 55343  43.0049 232.2581 0002837 263.3779  96.6750 15.27594830183348","mean_motion":15.2759483,"eccentricity":0.0002837,"inclination_deg":43.0049,"raan_deg":232.2581,"arg_perigee_deg":263.3779,"mean_anomaly_deg":96.675,"bstar":-0.00012593,"rev_number":18334,"period_min":94.265833565305,"perigee_km":481.05818414637,"apogee_km":484.9511959413,"semimajor_km":6861.1416900438,"source":"CELESTRAK","updated_at":"2026-05-25T13:38:17.762198Z"}}